EW9479 Weather Reports


time (UTC)temp
C
wind
direction
speed
KPH
gust
KPH
rain 1hr
cm
rain 24hr
cm
rain mn
cm
humidity
%
barometer
mb
20260510190045 28 69 4.8 9.7 0.00 0.00 0.00 49 1017.3
20260510184538 28 62 1.6 6.4 0.00 0.00 0.00 50 1017.4
20260510183046 28 91 0.0 9.7 0.00 0.00 0.00 50 1017.3
20260510181543 27 201 4.8 12.9 0.00 0.00 0.00 50 1017.3
20260510180042 28 250 3.2 9.7 0.00 0.00 0.00 54 1017.5
20260510174537 28 198 4.8 11.3 0.00 0.00 0.00 51 1017.7
20260510173043 27 274 1.6 6.4 0.00 0.00 0.00 52 1017.9
20260510171542 26 76 0.0 8.0 0.00 0.00 0.00 55 1018.0
20260510170043 26 274 1.6 6.4 0.00 0.00 0.00 57 1018.2
20260510164548 27 222 3.2 12.9 0.00 0.00 0.00 56 1018.2
20260510163038 26 284 1.6 9.7 0.00 0.00 0.00 57 1018.3
20260510161537 26 0 3.2 6.4 0.00 0.00 0.00 63 1018.3
20260510160041 25 272 1.6 11.3 0.00 0.00 0.00 66 1018.3
20260510154547 25 258 4.8 9.7 0.00 0.00 0.00 69 1018.2
20260510153038 24 48 3.2 11.3 0.00 0.00 0.00 72 1018.2
20260510151542 24 349 8.0 16.1 0.00 0.00 0.00 71 1018.2
20260510150048 24 293 6.4 12.9 0.00 0.00 0.00 73 1018.1
20260510144600 23 283 4.8 11.3 0.00 0.00 0.00 74 1018.1
20260510143054 23 287 3.2 6.4 0.00 0.00 0.00 76 1017.8
20260510141543 22 324 4.8 11.3 0.00 0.00 0.00 77 1017.9
20260510140042 22 15 4.8 9.7 0.00 0.00 0.00 79 1018.0
20260510134546 22 255 4.8 8.0 0.00 0.00 0.00 81 1017.9
20260510133044 21 283 3.2 6.4 0.00 0.00 0.00 82 1017.8
20260510131548 21 0 0.0 1.6 0.00 0.00 0.00 85 1017.6
20260510130043 18 338 0.0 1.6 0.00 0.00 0.00 90 1017.6
20260510124540 16 131 0.0 1.6 0.00 0.00 0.00 93 1017.5
20260510123038 15 0 0.0 1.6 0.00 0.00 0.00 94 1017.4
20260510121539 14 0 0.0 1.6 0.00 0.00 0.00 94 1017.4
20260510120044 13 130 0.0 1.6 0.00 0.00 0.00 94 1017.1
20260510114545 13 131 0.0 1.6 0.00 0.00 0.00 93 1016.9
20260510113040 13 0 0.0 1.6 0.00 0.00 0.00 94 1016.6
20260510111538 13 205 3.2 4.8 0.00 0.00 0.00 95 1016.4
20260510110038 12 0 0.0 0.0 0.00 0.00 0.00 93 1016.2
20260510104544 12 0 0.0 0.0 0.00 0.00 0.00 93 1016.1
20260510103044 12 0 0.0 1.6 0.00 0.00 0.00 93 1015.8
20260510101553 12 0 0.0 0.0 0.00 0.00 0.00 92 1015.7
20260510100040 12 0 0.0 0.0 0.00 0.00 0.00 92 1015.5
20260510094539 13 0 0.0 0.0 0.00 0.00 0.00 93 1015.4
20260510093047 13 215 0.0 1.6 0.00 0.00 0.00 92 1015.2
20260510091542 12 167 0.0 1.6 0.00 0.00 0.00 92 1015.1
20260510090053 12 0 0.0 0.0 0.00 0.00 0.00 92 1015.1
20260510084543 12 0 0.0 0.0 0.00 0.00 0.00 91 1015.0
20260510083038 13 0 0.0 0.0 0.00 0.00 0.00 91 1014.9
20260510081538 13 0 0.0 0.0 0.00 0.00 0.00 90 1015.0
20260510080045 13 0 0.0 0.0 0.00 0.00 0.00 91 1015.0
20260510074547 13 44 0.0 1.6 0.00 0.00 0.00 91 1015.0
20260510073103 13 0 0.0 0.0 0.00 0.00 0.00 90 1014.9
20260510071543 13 0 0.0 3.2 0.00 0.00 0.00 89 1015.0
20260510070042 14 113 0.0 1.6 0.00 0.00 0.00 88 1014.8
20260510064554 15 200 1.6 4.8 0.00 0.00 0.00 91 1014.6
20260510063038 13 0 0.0 3.2 0.00 0.00 0.00 90 1014.4
20260510061544 12 0 0.0 0.0 0.00 0.00 0.00 87 1014.5
20260510060044 12 224 0.0 3.2 0.00 0.00 0.00 87 1014.5
20260510054544 12 0 0.0 0.0 0.00 0.00 0.00 88 1014.6
20260510053045 13 0 0.0 0.0 0.00 0.00 0.00 87 1014.3
20260510051548 13 0 0.0 3.2 0.00 0.00 0.00 87 1014.5
20260510050039 13 0 0.0 0.0 0.00 0.00 0.00 86 1014.3
20260510044545 13 0 0.0 1.6 0.00 0.00 0.00 86 1014.3
20260510043044 13 0 0.0 0.0 0.00 0.00 0.00 86 1014.3
20260510041542 13 37 0.0 1.6 0.00 0.00 0.00 86 1014.2
20260510040045 14 0 0.0 1.6 0.00 0.00 0.00 84 1014.4
20260510034549 14 0 0.0 1.6 0.00 0.00 0.00 83 1014.4
20260510033040 15 37 1.6 1.6 0.00 0.00 0.00 80 1014.4
20260510031544 15 0 0.0 0.0 0.00 0.00 0.00 80 1014.5
20260510030042 15 0 0.0 1.6 0.00 0.00 0.00 79 1014.5
20260510024542 16 0 0.0 0.0 0.00 0.00 0.00 78 1014.3
20260510023038 16 0 0.0 0.0 0.00 0.00 0.00 78 1014.2
20260510021552 16 0 0.0 0.0 0.00 0.00 0.00 75 1013.9
20260510020044 17 0 0.0 0.0 0.00 0.00 0.00 74 1013.6
20260510014551 17 0 0.0 0.0 0.00 0.00 0.00 70 1013.4
20260510013043 18 0 0.0 0.0 0.00 0.00 0.00 70 1013.0
20260510011541 19 0 0.0 0.0 0.00 0.00 0.00 65 1012.9
20260510010047 20 0 0.0 0.0 0.00 0.00 0.00 63 1012.7
20260510004547 22 0 0.0 0.0 0.00 0.00 0.00 60 1012.5
20260510003104 23 0 0.0 0.0 0.00 0.00 0.00 56 1012.2
20260510001543 25 0 0.0 0.0 0.00 0.00 0.00 53 1012.1
20260510000046 26 0 0.0 1.6 0.00 0.00 0.00 54 1012.0
20260509234541 26 0 0.0 3.2 0.00 0.00 0.00 48 1011.9
20260509233038 26 61 0.0 3.2 0.00 0.00 0.00 41 1011.8
20260509231545 26 60 1.6 6.4 0.00 0.00 0.00 39 1011.8
20260509230038 26 0 1.6 6.4 0.00 0.00 0.00 45 1011.6
20260509224542 27 59 4.8 8.0 0.00 0.00 0.00 42 1011.5
20260509223045 27 57 1.6 4.8 0.00 0.00 0.00 43 1011.5
20260509221543 27 29 1.6 6.4 0.00 0.00 0.00 39 1011.7
20260509220043 27 281 3.2 8.0 0.00 0.00 0.00 40 1011.8
20260509214550 27 292 4.8 8.0 0.00 0.00 0.00 39 1011.7
20260509213045 27 307 3.2 8.0 0.00 0.00 0.00 43 1011.8
20260509211547 27 350 1.6 8.0 0.00 0.00 0.00 43 1011.9
20260509210048 27 219 3.2 9.7 0.00 0.00 0.00 43 1011.9
20260509204542 27 311 3.2 6.4 0.00 0.00 0.00 42 1011.8
20260509203043 27 44 1.6 6.4 0.00 0.00 0.00 43 1012.0
20260509201538 27 47 3.2 8.0 0.00 0.00 0.00 40 1011.9
20260509200049 26 11 3.2 11.3 0.00 0.00 0.00 46 1012.0
20260509194550 27 226 1.6 8.0 0.00 0.00 0.00 47 1012.1
20260509193043 27 313 1.6 4.8 0.00 0.00 0.00 47 1012.2
20260509191544 26 91 1.6 9.7 0.00 0.00 0.00 48 1012.3